Weather Roundup
Issued by NWS

Home | Current Version | Previous Version | Graphics & Text | Print | Product List | Glossary Off
Versions: 1 2 3 4 5 6 7 8 9 10 11 12 13 14 15 16 17 18 19 20 21 22 23 24 25 26 27 28 29 30 31 32 33 34 35 36 37 38 39 40 41 42 43 44 45 46 47 48 49 50

000
NZUS93 KARX 162210
HRRWXR

CURRENT HOURLY OBSERVATIONS ACROSS
MUCH OF THE UPPER MISSISSIPPI VALLEY
NATIONAL WEATHER SERVICE LA CROSSE WI
400 PM CST TUE JAN 16 2018


...SOUTHEAST MINNESOTA...


CITY           SKY/WX    TMP DP  RH WIND       PRES   REMARKS
ROCHESTER      FAIR       4   1  88 NW10      30.58R WCI -11
ROCHESTER/MAYO MOCLDY     6   1  78 W10       30.60R WCI  -8
WINONA         FAIR      14   5  67 W6        30.61R WCI   5
AUSTIN         FAIR       3  -2  78 NW10      30.60R WCI -12
ALBERT LEA     FAIR       1  -4  78 W6        30.61R WCI -10
DODGE CENTER   MOCLDY     1  -2  85 W12       30.58S WCI -15
PRESTON        FAIR       5  -1  75 NW7       30.58S WCI  -7
OWATONNA       FAIR       1  -4  78 W8        30.61F WCI -12
FARIBAULT      FAIR       3  -4  72 W7        30.62F WCI  -9
$$

...ELSEWHERE IN MINNESOTA...


CITY           SKY/WX    TMP DP  RH WIND       PRES   REMARKS
MINNEAPOLIS    FAIR       6  -2  69 W8        30.63S WCI  -7
INTNL FALLS    FAIR       5  -8  55 SW10      30.45F WCI -10
DULUTH         FAIR       8   1  73 W10       30.46F WCI  -6
RED WING       FAIR       9  -2  61 W8        30.62S WCI  -4
REDWOOD FALLS  CLEAR      3  -4  72 W9        30.64F WCI -12
MANKATO        FAIR       4  -3  73 W9        30.64F WCI -10
WORTHINGTON    CLEAR      6   0  76 W9        30.61F WCI  -8
FAIRMONT       CLEAR      4  -2  76 W9        30.65S WCI -10
$$

...SOUTHWEST WISCONSIN...


CITY           SKY/WX    TMP DP  RH WIND       PRES   REMARKS
LA CROSSE      FAIR      14   5  67 NW9       30.59S WCI   2
PRAIRIE DU CHI FAIR      14   6  68 W8        30.59S WCI   3
BOSCOBEL       FAIR      17   7  64 W6        30.58R WCI   9
LONE ROCK      FAIR      19  10  68 W8        30.55R WCI   9
PLATTEVILLE    FAIR      15  10  77 W9        30.54R WCI   4
FORT MC COY    FAIR      16   8  73 W5        30.57R WCI   8
CAMP DOUGLAS   PTCLDY    19  10  68 W10       30.53R WCI   8
MAUSTON-NEW LI FAIR      18  10  70 W8        30.52R WCI   8
VIROQUA        FAIR      14   9  81 W8        30.52S WCI   3
WIS DELLS      FAIR      20  11  68 NW3       30.51R
$$

...ELSEWHERE IN WISCONSIN...


CITY           SKY/WX    TMP DP  RH WIND       PRES   REMARKS
MILWAUKEE      FAIR      24   9  52 N14       30.47R WCI  12
MADISON        FAIR      20  11  68 N7        30.51R WCI  11
GREEN BAY      FAIR      19  11  70 W6        30.48R WCI  11
EAU CLAIRE     FAIR       9   3  77 W13       30.56S WCI  -7
BLACK RVR FLS  FAIR      17   7  65 W9        30.56R WCI   5
MEDFORD        FAIR      18  10  70 W10       30.45S WCI   6
WAUSAU         MOCLDY    20   8  60 NW6       30.44S WCI  12
WIS RAPIDS     FAIR      20   9  62 NW10      30.51R WCI   9
MARSHFIELD     FAIR      16   9  74 NW9       30.47S WCI   4
RICE LAKE      FAIR      10   3  72 CALM      30.57S
$$

...NORTHEAST IOWA...


CITY           SKY/WX    TMP DP  RH WIND       PRES   REMARKS
WATERLOO       FAIR       7  -1  70 W7        30.63R WCI  -5
DUBUQUE        FAIR      14   6  70 W9        30.54R WCI   2
DECORAH        FAIR      12   5  73 NW6       30.56R WCI   3
MASON CITY     CLOUDY     4  -2  76 NW10      30.63S WCI -11
CHARLES CITY   FAIR       7   1  78 NW7       30.61S WCI  -5
OELWEIN        FAIR       9   5  85 NW14      30.60R WCI  -8
$$

...ELSEWHERE IN IOWA...


CITY           SKY/WX    TMP DP  RH WIND       PRES   REMARKS
DES MOINES     PTSUNNY    6  -1  73 NW10      30.67F WCI  -9
IOWA CITY      FAIR      12   3  67 W14       30.65R WCI  -3
FORT DODGE     CLEAR      5  -2  72 NW8       30.66S WCI  -8
MARSHALLTOWN   CLEAR      7   1  76 NW13      30.63S WCI  -9
CEDAR RAPIDS   FAIR      10   2  69 NW13      30.60S WCI  -5
$$

...NORTHERN ILLINOIS...


CITY           SKY/WX    TMP DP  RH WIND       PRES   REMARKS
CHICAGO-OHARE  MOCLDY    24  11  57 NW14      30.46R WCI  12
CHICAGO-MIDWAY FAIR      23  12  62 NW12      30.47R WCI  12
MOLINE         FAIR      16   8  71 W14       30.59R WCI   2
ROCKFORD       FAIR      20  10  65 NW10      30.53R WCI   9
PEORIA         CLOUDY    12   5  73 NW10G21   30.59R WCI  -1
$$

NOTE: "FAIR" INDICATES FEW OR NO CLOUDS BELOW 12,000 FEET WITH NO
SIGNIFICANT WEATHER AND/OR OBSTRUCTIONS TO VISIBILITY. WIND
SPEEDS ARE IN MILES-PER-HOUR.




USA.gov is the U.S. government's official web portal to all federal, state and local government web resources and services.